TimeCST,TemperatureF,Dew PointF,Humidity,Sea Level PressureIn,VisibilityMPH,Wind Direction,Wind SpeedMPH,Gust SpeedMPH,PrecipitationIn,Events,Conditions,WindDirDegrees,DateUTC
12:15 AM,59.9,43.0,54,30.09,10.0,South,8.1,-,N/A,,Clear,170,2012-11-11 06:15:00
12:35 AM,60.3,42.6,52,30.09,10.0,South,8.1,-,N/A,,Clear,170,2012-11-11 06:35:00
12:55 AM,60.1,41.9,51,30.08,10.0,SSE,8.1,-,N/A,,Clear,160,2012-11-11 06:55:00
1:15 AM,59.7,41.9,52,30.08,10.0,SSE,5.8,-,N/A,,Clear,160,2012-11-11 07:15:00
1:35 AM,59.9,41.9,51,30.08,10.0,South,9.2,-,N/A,,Clear,170,2012-11-11 07:35:00
1:55 AM,59.5,42.1,52,30.08,10.0,SSE,6.9,-,N/A,,Clear,160,2012-11-11 07:55:00
2:15 AM,59.2,42.8,55,30.08,10.0,SSE,6.9,-,N/A,,Clear,150,2012-11-11 08:15:00
2:35 AM,59.4,43.7,56,30.09,10.0,South,6.9,-,N/A,,Clear,170,2012-11-11 08:35:00
2:55 AM,60.4,44.6,56,30.09,10.0,South,9.2,-,N/A,,Clear,170,2012-11-11 08:55:00
3:15 AM,61.3,45.5,56,30.09,10.0,South,11.5,18.4,N/A,,Clear,180,2012-11-11 09:15:00
3:35 AM,61.5,45.5,56,30.09,10.0,South,9.2,19.6,N/A,,Mostly Cloudy,180,2012-11-11 09:35:00
3:55 AM,61.0,45.9,58,30.09,10.0,South,10.4,18.4,N/A,,Overcast,170,2012-11-11 09:55:00
4:15 AM,61.0,45.9,58,30.09,10.0,South,9.2,17.3,N/A,,Overcast,170,2012-11-11 10:15:00
4:35 AM,60.6,45.7,58,30.09,10.0,South,9.2,16.1,N/A,,Mostly Cloudy,170,2012-11-11 10:35:00
4:55 AM,60.8,45.9,58,30.09,10.0,South,9.2,16.1,N/A,,Mostly Cloudy,170,2012-11-11 10:55:00
5:15 AM,60.4,46.0,59,30.09,10.0,SSE,8.1,16.1,N/A,,Overcast,160,2012-11-11 11:15:00
5:55 AM,59.9,46.4,61,30.09,10.0,SSE,11.5,18.4,N/A,,Overcast,160,2012-11-11 11:55:00
6:15 AM,59.4,46.6,63,30.10,10.0,South,9.2,-,N/A,,Mostly Cloudy,170,2012-11-11 12:15:00
6:55 AM,60.1,47.7,64,30.09,10.0,SSE,9.2,12.7,N/A,,Overcast,160,2012-11-11 12:55:00
7:15 AM,60.4,48.4,64,30.09,10.0,SSE,10.4,-,N/A,,Overcast,160,2012-11-11 13:15:00
7:55 AM,61.7,49.5,64,30.10,10.0,South,13.8,23.0,N/A,,Overcast,170,2012-11-11 13:55:00
8:15 AM,62.2,50.0,64,30.11,10.0,South,10.4,19.6,N/A,,Overcast,180,2012-11-11 14:15:00
8:55 AM,63.1,50.5,63,30.12,10.0,South,15.0,20.7,N/A,,Overcast,190,2012-11-11 14:55:00
9:15 AM,63.7,50.5,62,30.11,10.0,South,11.5,16.1,N/A,,Overcast,170,2012-11-11 15:15:00
9:35 AM,64.4,50.2,60,30.11,10.0,South,12.7,21.9,N/A,,Overcast,180,2012-11-11 15:35:00
9:55 AM,64.8,50.4,60,30.11,10.0,South,15.0,21.9,N/A,,Mostly Cloudy,170,2012-11-11 15:55:00
10:15 AM,65.1,50.4,59,30.10,10.0,South,10.4,21.9,N/A,,Scattered Clouds,170,2012-11-11 16:15:00
10:35 AM,66.2,50.5,57,30.09,10.0,South,12.7,23.0,N/A,,Clear,180,2012-11-11 16:35:00
10:55 AM,66.2,50.5,57,30.09,10.0,South,11.5,23.0,N/A,,Clear,170,2012-11-11 16:55:00
11:15 AM,67.3,51.3,56,30.07,10.0,South,12.7,25.3,N/A,,Scattered Clouds,170,2012-11-11 17:15:00
11:35 AM,68.2,51.6,55,30.06,10.0,South,13.8,26.5,N/A,,Scattered Clouds,170,2012-11-11 17:35:00
11:55 AM,69.3,51.8,54,30.04,10.0,South,15.0,27.6,N/A,,Clear,170,2012-11-11 17:55:00
12:15 PM,69.4,52.0,54,30.03,10.0,South,15.0,26.5,N/A,,Scattered Clouds,170,2012-11-11 18:15:00
12:35 PM,70.0,52.2,53,30.02,10.0,South,12.7,21.9,N/A,,Scattered Clouds,180,2012-11-11 18:35:00
12:55 PM,70.7,52.5,52,30.01,10.0,South,13.8,21.9,N/A,,Scattered Clouds,170,2012-11-11 18:55:00
1:15 PM,71.6,52.5,51,29.99,10.0,South,12.7,24.2,N/A,,Scattered Clouds,170,2012-11-11 19:15:00
1:35 PM,70.9,52.0,51,29.97,10.0,SSE,15.0,28.8,N/A,,Scattered Clouds,160,2012-11-11 19:35:00
1:55 PM,71.6,52.5,51,29.97,10.0,South,12.7,24.2,N/A,,Scattered Clouds,170,2012-11-11 19:55:00
2:15 PM,70.9,51.3,50,29.95,10.0,SSE,15.0,26.5,N/A,,Clear,160,2012-11-11 20:15:00
2:35 PM,71.8,51.3,48,29.94,10.0,SSE,15.0,27.6,N/A,,Clear,150,2012-11-11 20:35:00
2:55 PM,71.6,51.1,48,29.95,10.0,South,16.1,29.9,N/A,,Clear,170,2012-11-11 20:55:00
3:15 PM,71.4,50.9,48,29.95,10.0,South,16.1,28.8,N/A,,Clear,170,2012-11-11 21:15:00
3:35 PM,70.7,50.4,48,29.96,10.0,SSE,13.8,25.3,N/A,,Clear,160,2012-11-11 21:35:00
3:55 PM,70.0,50.5,50,29.94,10.0,SSE,13.8,18.4,N/A,,Mostly Cloudy,150,2012-11-11 21:55:00
4:15 PM,69.8,50.5,50,29.94,10.0,SSE,11.5,20.7,N/A,,Overcast,150,2012-11-11 22:15:00
4:35 PM,69.8,50.4,50,29.94,10.0,SSE,10.4,20.7,N/A,,Overcast,150,2012-11-11 22:35:00
4:55 PM,69.4,49.6,49,29.93,10.0,SSE,17.3,25.3,N/A,,Overcast,160,2012-11-11 22:55:00
5:15 PM,69.4,49.3,49,29.93,10.0,SSE,16.1,28.8,N/A,,Mostly Cloudy,160,2012-11-11 23:15:00
5:35 PM,69.4,49.3,49,29.94,10.0,SSE,13.8,23.0,N/A,,Overcast,160,2012-11-11 23:35:00
5:55 PM,69.8,49.3,48,29.94,10.0,SSE,13.8,25.3,N/A,,Overcast,160,2012-11-11 23:55:00
6:15 PM,69.4,49.6,49,29.93,10.0,South,16.1,23.0,N/A,,Mostly Cloudy,170,2012-11-12 00:15:00
6:35 PM,69.6,50.0,50,29.94,10.0,SSE,12.7,26.5,N/A,,Mostly Cloudy,160,2012-11-12 00:35:00
6:55 PM,69.3,50.4,51,29.94,10.0,South,16.1,21.9,N/A,,Overcast,170,2012-11-12 00:55:00
7:15 PM,69.3,50.9,52,29.95,10.0,SSE,18.4,26.5,N/A,,Overcast,160,2012-11-12 01:15:00
7:35 PM,66.0,54.1,65,29.98,7.0,South,23.0,34.5,0.01,,Overcast,170,2012-11-12 01:35:00
7:55 PM,62.1,56.7,82,29.98,5.0,South,13.8,24.2,0.11,,Overcast,170,2012-11-12 01:55:00
8:15 PM,61.5,57.2,86,29.96,7.0,SSE,12.7,23.0,0.05,,Overcast,160,2012-11-12 02:15:00
8:35 PM,61.3,56.8,85,29.97,10.0,SSE,13.8,24.2,0.05,,Overcast,160,2012-11-12 02:35:00
8:55 PM,61.0,58.1,90,29.97,7.0,SSE,18.4,26.5,0.08,,Overcast,150,2012-11-12 02:55:00
9:35 PM,60.3,59.5,97,29.96,7.0,SSE,15.0,21.9,0.06,,Overcast,160,2012-11-12 03:35:00
9:55 PM,60.4,59.4,96,29.97,10.0,South,12.7,21.9,0.08,,Overcast,180,2012-11-12 03:55:00
10:15 PM,60.4,59.2,96,29.97,10.0,South,9.2,16.1,0.01,,Overcast,180,2012-11-12 04:15:00
10:35 PM,60.3,59.5,97,29.97,4.0,SSW,8.1,16.1,0.08,,Overcast,210,2012-11-12 04:35:00
10:55 PM,60.3,59.9,99,29.98,7.0,SW,6.9,-,0.11,,Overcast,220,2012-11-12 04:55:00
11:15 PM,57.2,56.8,99,29.98,3.0,WNW,15.0,19.6,0.04,,Overcast,300,2012-11-12 05:15:00
11:55 PM,53.6,53.6,100,30.00,5.0,NW,9.2,-,0.15,,Overcast,320,2012-11-12 05:55:00